Flag for Germany Weather past 2 weeks in Lohne (Oldenburg), Lower Saxony, Germany

Now
54 °F

Fog.


Feels Like: 52 °F
Forecast: 50 / 73 °F
Wind: 7 mph from East

Location: Bremen Airport


UV Index: 3 (Moderate)

Visibility: 1 mi


Pressure: 30.12 "Hg

Humidity: 100%

Dew point: 54 °F

Location of Lohne (Oldenburg)Location

Historic Weather in Lohne (Oldenburg)

°F

Lohne (Oldenburg) temperature yesterday

Maximum temperature yesterday: 68 °F (at 1:50 PM)
Minimum temperature yesterday: 43 °F (at 5:20 AM)
Average temperature yesterday: 56 °F

Past Weeks' High & Low Weather Summary

 TemperatureHumidityPressure
High70 °F (Apr 20, 3:20 PM)100% (Apr 9, 4:20 AM)30.48 "Hg (Apr 9, 4:20 AM)
Low28 °F (Apr 16, 4:20 AM)39% (Apr 16, 4:20 PM)29.71 "Hg (Apr 21, 2:20 PM)
Average50 °F78%30.03 "Hg
* Reported Apr 9 2:20 AM — Apr 24 2:20 AM, Lohne (Oldenburg), Weather by CustomWeather, © 2014

Note: Actual official high and low records may vary slightly from our data, if they occured in-between our weather recording intervals... More about our weather records

Advertising

Historic Weather Conditions — Data for Previous 24 hours

 ConditionsComfort  
Time TempWeatherWind HumidityBarometerVisibility
2:20 AM
Apr 24
54 °FFog.6 mph100%30.15 "Hg2 mi
1:50 AM54 °FFog.8 mph94%30.15 "Hg1 mi
1:20 AM54 °FFog.8 mph94%30.15 "Hg2 mi
12:50 AM54 °FFog.6 mph94%30.15 "Hg4 mi
12:20 AM54 °FFog.5 mph94%30.15 "Hg4 mi
11:50 PM
Apr 23
54 °FFog.6 mph94%30.15 "Hg4 mi
11:20 PM54 °FFog.7 mph94%30.15 "Hg4 mi
10:50 PM55 °FFog.8 mph94%30.15 "Hg4 mi
10:20 PM55 °FFog.7 mph94%30.12 "HgN/A
9:50 PM57 °FClear.5 mph88%30.12 "Hg10 mi
9:20 PM57 °FSunny.5 mph88%30.12 "Hg10 mi
8:50 PM57 °FSunny.5 mph88%30.12 "Hg10 mi
8:20 PM59 °FScattered clouds.8 mph88%30.09 "HgN/A
7:50 PM57 °FThundershowers. Broken clouds.6 mph88%30.09 "HgN/A
7:20 PM57 °FThundershowers. Broken clouds.9 mph88%30.09 "HgN/A
6:50 PM55 °FThunderstorms. Partly sunny.9 mph82%30.09 "HgN/A
6:20 PM57 °FThunderstorms. Partly sunny.13 mph82%30.09 "HgN/A
5:50 PM59 °FThunderstorms. Partly sunny.14 mph88%30.09 "HgN/A
5:20 PM63 °FThunderstorms. Broken clouds.9 mph88%30.09 "HgN/A
4:50 PM63 °FThunderstorms. Broken clouds.10 mph77%30.09 "HgN/A
4:20 PM64 °FPartly sunny.8 mph68%30.09 "HgN/A
3:50 PM66 °FPartly sunny.3 mph60%30.09 "HgN/A
3:20 PM66 °FPartly sunny.3 mph60%30.09 "HgN/A
2:50 PM68 °FBroken clouds.5 mph56%30.09 "HgN/A
2:20 PM66 °FBroken clouds.3 mph56%30.09 "HgN/A
1:50 PM68 °FBroken clouds.3 mph64%30.09 "HgN/A
1:20 PM64 °FPartly sunny.3 mph68%30.09 "HgN/A
12:50 PM64 °FPartly sunny.3 mph68%30.09 "HgN/A
12:20 PM64 °FSunny.3 mph64%30.09 "Hg10 mi
11:50 AM63 °FClear.5 mph73%30.09 "Hg5 mi
11:20 AM61 °FClear.3 mph72%30.09 "Hg4 mi
10:50 AM61 °FClear.3 mph77%30.09 "Hg4 mi
10:20 AM59 °FFog.6 mph82%30.09 "Hg3 mi
9:50 AM59 °FFog.3 mph82%30.09 "Hg2 mi
9:20 AM55 °FFog.3 mph94%30.09 "Hg2 mi
8:50 AM54 °FFog.2 mph100%30.09 "Hg2 mi
8:20 AM50 °FFog.5 mph100%30.09 "Hg2 mi
7:50 AM48 °FFog.3 mph100%30.09 "Hg1 mi
7:20 AM45 °FFog.2 mph100%30.07 "Hg0 mi
6:50 AM43 °FFog.5 mph100%30.07 "Hg0 mi
6:20 AM45 °FLight fog.2 mph93%30.07 "Hg0 mi
5:50 AM43 °FLight fog.3 mph100%30.07 "Hg1 mi
5:20 AM43 °FLight fog.5 mph93%30.04 "Hg1 mi
4:50 AM45 °FSleet. Overcast.5 mph100%30.04 "Hg1 mi
4:20 AM48 °FFog.No wind94%30.04 "Hg4 mi
3:50 AM48 °FClear.1 mph100%30.04 "Hg10 mi
3:20 AM50 °FPassing clouds.3 mph94%30.04 "HgN/A
Weather by CustomWeather, © 2014

See weather overview